This is the latest recevied weather packets stored in our database for station/object KI4NG. If no packets are shown the sender has not sent any weather packets the latest 10 day(s).
| Time | Temp. | Humidity | Pressure | Rain* | Wind** | Luminosity | Snow |
|---|---|---|---|---|---|---|---|
| 1788531419 | 28.89° C | 76% | 1020.4 hPa | 0 mm | - | 445 W/m² | - |
| 1788531115 | 29.44° C | 77% | 1020.2 hPa | 0 mm | - | 403 W/m² | - |
| 1788530810 | 29.44° C | 77% | 1020.6 hPa | 0 mm | - | 392 W/m² | - |
| 1788530505 | 28.89° C | 78% | 1020.2 hPa | 0 mm | - | 367 W/m² | - |
| 1788530204 | 28.89° C | 80% | 1020.3 hPa | 0 mm | - | 326 W/m² | - |
| 1788529900 | 28.33° C | 80% | 1020.4 hPa | 0 mm | - | 108 W/m² | - |
| 1788529596 | 27.78° C | 81% | 1020.3 hPa | 0 mm | - | 314 W/m² | - |
| 1788529295 | 27.22° C | 83% | 1020.2 hPa | 0 mm | - | 296 W/m² | - |
| 1788528990 | 26.67° C | 86% | 1020.1 hPa | 0 mm | - | 76 W/m² | - |
| 1788528686 | 26.67° C | 85% | 1019.9 hPa | 0 mm | - | 82 W/m² | - |
| 1788528380 | 26.67° C | 85% | 1020.2 hPa | 0 mm | - | 91 W/m² | - |
| 1788528075 | 26.11° C | 86% | 1020.2 hPa | 0 mm | - | 70 W/m² | - |
| 1788527774 | 25.56° C | 89% | 1020.2 hPa | 0 mm | - | 69 W/m² | - |
| 1788527470 | 25° C | 89% | 1020.2 hPa | 0 mm | - | 126 W/m² | - |
| 1788527169 | 25° C | 91% | 1020.4 hPa | 0 mm | - | 64 W/m² | - |
| 1788526865 | 24.44° C | 93% | 1020.2 hPa | 0 mm | - | 62 W/m² | - |
| 1788526561 | 23.89° C | 93% | 1020.1 hPa | 0 mm | - | 146 W/m² | - |
| 1788526261 | 23.89° C | 94% | 1020.2 hPa | 0 mm | - | 131 W/m² | - |
| 1788525956 | 23.33° C | 94% | 1020.1 hPa | 0 mm | - | 123 W/m² | - |
| 1788525652 | 23.33° C | 95% | 1020.2 hPa | 0 mm | - | 68 W/m² | - |
| 1788525346 | 22.78° C | 96% | 1020 hPa | 0 mm | - | 52 W/m² | - |
| 1788525042 | 22.78° C | 97% | 1020.2 hPa | 0 mm | - | 52 W/m² | - |
| 1788524742 | 22.22° C | 99% | 1020 hPa | 0 mm | - | 47 W/m² | - |
| 1788524437 | 22.22° C | 99% | 1019.8 hPa | 0 mm | - | 39 W/m² | - |
| 1788524132 | 21.67° C | 99% | 1019.7 hPa | 0 mm | - | 37 W/m² | - |
* Rain latest hour (hover to see other rain measurements)
** Current wind speed in m/s (hover to see current wind gust speed)